| time (UTC) | temp F | wind direction | speed knots | gust knots | rain 1hr in | rain 24hr in | rain mn in | humidity % | barometer mb |
| 20260507105711 | 41 | 346 | 0.0 | 0.0 | 0.00 | 0.00 | 0.00 | 99 | 1034.4 |
| 20260507105206 | 41 | 344 | 0.0 | 0.0 | 0.00 | 0.00 | 0.00 | 99 | 1034.4 |
| 20260507104704 | 41 | 323 | 0.0 | 0.0 | 0.00 | 0.00 | 0.00 | 99 | 1034.8 |
| 20260507104201 | 41 | 332 | 0.0 | 0.0 | 0.00 | 0.00 | 0.00 | 99 | 1034.7 |
| 20260507103656 | 41 | 328 | 0.0 | 0.0 | 0.00 | 0.00 | 0.00 | 99 | 1034.5 |
| 20260507103153 | 41 | 338 | 0.0 | 0.0 | 0.00 | 0.00 | 0.00 | 99 | 1034.6 |
| 20260507102649 | 41 | 347 | 0.0 | 0.0 | 0.00 | 0.00 | 0.00 | 99 | 1034.6 |
| 20260507102146 | 41 | 326 | 0.0 | 0.0 | 0.00 | 0.00 | 0.00 | 99 | 1034.6 |
| 20260507101642 | 41 | 325 | 0.0 | 0.0 | 0.00 | 0.00 | 0.00 | 99 | 1034.5 |
| 20260507101138 | 40 | 325 | 0.0 | 0.0 | 0.00 | 0.00 | 0.00 | 99 | 1034.5 |
| 20260507100635 | 40 | 327 | 0.0 | 0.0 | 0.00 | 0.00 | 0.00 | 99 | 1034.4 |
| 20260507100134 | 40 | 334 | 0.0 | 0.0 | 0.00 | 0.00 | 0.00 | 99 | 1034.4 |
| 20260507095631 | 41 | 338 | 0.0 | 0.0 | 0.00 | 0.00 | 0.00 | 99 | 1034.5 |
| 20260507095127 | 41 | 354 | 0.0 | 0.0 | 0.00 | 0.00 | 0.00 | 99 | 1034.8 |
| 20260507094624 | 41 | 341 | 0.0 | 0.9 | 0.00 | 0.00 | 0.00 | 99 | 1034.8 |
| 20260507094121 | 40 | 353 | 0.0 | 0.0 | 0.00 | 0.00 | 0.00 | 99 | 1034.6 |
| 20260507093618 | 41 | 353 | 0.0 | 0.0 | 0.00 | 0.00 | 0.00 | 99 | 1034.6 |
| 20260507093117 | 41 | 353 | 0.0 | 0.0 | 0.00 | 0.00 | 0.00 | 99 | 1034.6 |
| 20260507092613 | 41 | 353 | 0.0 | 0.0 | 0.00 | 0.00 | 0.00 | 99 | 1034.6 |
| 20260507092109 | 41 | 353 | 0.0 | 0.0 | 0.00 | 0.00 | 0.00 | 99 | 1034.7 |
| 20260507091606 | 41 | 354 | 0.0 | 0.0 | 0.00 | 0.00 | 0.00 | 99 | 1034.9 |
| 20260507091102 | 41 | 354 | 0.0 | 0.0 | 0.00 | 0.00 | 0.00 | 99 | 1034.7 |
| 20260507090558 | 41 | 353 | 0.0 | 0.0 | 0.00 | 0.00 | 0.00 | 99 | 1034.8 |
| 20260507090055 | 41 | 353 | 0.0 | 0.0 | 0.00 | 0.00 | 0.00 | 99 | 1035.0 |
| 20260507085552 | 41 | 353 | 0.0 | 0.0 | 0.00 | 0.00 | 0.00 | 99 | 1034.8 |
| 20260507085049 | 42 | 353 | 0.0 | 0.0 | 0.00 | 0.00 | 0.00 | 99 | 1034.7 |
| 20260507084546 | 42 | 353 | 0.0 | 0.0 | 0.00 | 0.00 | 0.00 | 99 | 1034.7 |
| 20260507084043 | 42 | 353 | 0.0 | 0.0 | 0.00 | 0.00 | 0.00 | 99 | 1034.8 |
| 20260507083539 | 41 | 353 | 0.0 | 0.0 | 0.00 | 0.00 | 0.00 | 99 | 1034.7 |
| 20260507083036 | 41 | 353 | 0.0 | 0.0 | 0.00 | 0.00 | 0.00 | 99 | 1034.9 |
| 20260507082532 | 41 | 353 | 0.0 | 0.0 | 0.00 | 0.00 | 0.00 | 99 | 1034.6 |
| 20260507082029 | 41 | 353 | 0.0 | 0.0 | 0.00 | 0.00 | 0.00 | 99 | 1034.6 |
| 20260507081525 | 42 | 353 | 0.0 | 0.0 | 0.00 | 0.00 | 0.00 | 99 | 1034.7 |
| 20260507081022 | 42 | 353 | 0.0 | 0.0 | 0.00 | 0.00 | 0.00 | 99 | 1034.7 |
| 20260507080518 | 42 | 353 | 0.0 | 0.0 | 0.00 | 0.00 | 0.00 | 99 | 1034.6 |
| 20260507080015 | 42 | 353 | 0.0 | 0.0 | 0.00 | 0.00 | 0.00 | 99 | 1034.7 |
| 20260507075510 | 42 | 353 | 0.0 | 0.0 | 0.00 | 0.00 | 0.00 | 99 | 1034.5 |
| 20260507075007 | 42 | 353 | 0.0 | 0.0 | 0.00 | 0.00 | 0.00 | 99 | 1034.4 |
| 20260507074503 | 42 | 353 | 0.0 | 0.0 | 0.00 | 0.00 | 0.00 | 99 | 1034.5 |
| 20260507074002 | 43 | 353 | 0.0 | 0.0 | 0.00 | 0.00 | 0.00 | 99 | 1034.3 |
| 20260507073457 | 43 | 353 | 0.0 | 0.0 | 0.00 | 0.00 | 0.00 | 99 | 1034.3 |
| 20260507072954 | 43 | 353 | 0.0 | 0.0 | 0.00 | 0.00 | 0.00 | 99 | 1034.2 |
| 20260507072452 | 43 | 353 | 0.0 | 0.0 | 0.00 | 0.00 | 0.00 | 99 | 1034.3 |
| 20260507071949 | 43 | 353 | 0.0 | 0.0 | 0.00 | 0.00 | 0.00 | 99 | 1033.9 |
| 20260507071446 | 43 | 353 | 0.0 | 0.0 | 0.00 | 0.00 | 0.00 | 99 | 1034.0 |
| 20260507070942 | 44 | 353 | 0.0 | 0.0 | 0.00 | 0.00 | 0.00 | 99 | 1033.7 |
| 20260507070440 | 44 | 353 | 0.0 | 0.0 | 0.00 | 0.00 | 0.00 | 99 | 1034.0 |
| 20260507065936 | 44 | 353 | 0.0 | 0.0 | 0.00 | 0.00 | 0.00 | 99 | 1033.8 |
| 20260507065433 | 44 | 353 | 0.0 | 0.0 | 0.00 | 0.00 | 0.00 | 99 | 1033.7 |
| 20260507064931 | 44 | 353 | 0.0 | 0.0 | 0.00 | 0.00 | 0.00 | 99 | 1033.8 |
| 20260507064429 | 44 | 354 | 0.0 | 0.0 | 0.00 | 0.00 | 0.00 | 99 | 1034.1 |
| 20260507063926 | 44 | 352 | 0.0 | 0.0 | 0.00 | 0.00 | 0.00 | 99 | 1034.1 |
| 20260507063423 | 44 | 352 | 0.0 | 0.0 | 0.00 | 0.00 | 0.00 | 99 | 1033.9 |
| 20260507062920 | 44 | 353 | 0.0 | 0.0 | 0.00 | 0.00 | 0.00 | 99 | 1033.8 |
| 20260507062416 | 44 | 351 | 0.0 | 0.0 | 0.00 | 0.00 | 0.00 | 99 | 1034.1 |
| 20260507061909 | 44 | 351 | 0.0 | 0.0 | 0.00 | 0.00 | 0.00 | 99 | 1033.8 |
| 20260507061407 | 44 | 351 | 0.0 | 0.0 | 0.00 | 0.00 | 0.00 | 99 | 1033.8 |
| 20260507060905 | 44 | 350 | 0.0 | 0.0 | 0.00 | 0.00 | 0.00 | 99 | 1034.1 |
| 20260507060401 | 44 | 350 | 0.0 | 0.0 | 0.00 | 0.00 | 0.00 | 99 | 1033.7 |
| 20260507055858 | 44 | 351 | 0.0 | 0.0 | 0.00 | 0.00 | 0.00 | 99 | 1033.7 |
| 20260507055353 | 44 | 349 | 0.0 | 0.0 | 0.00 | 0.00 | 0.00 | 99 | 1033.9 |
| 20260507054850 | 44 | 342 | 0.0 | 0.0 | 0.00 | 0.00 | 0.00 | 99 | 1034.4 |
| 20260507054346 | 44 | 342 | 0.0 | 0.0 | 0.00 | 0.00 | 0.00 | 99 | 1034.4 |
| 20260507053843 | 44 | 349 | 0.0 | 0.0 | 0.00 | 0.00 | 0.00 | 99 | 1034.1 |
| 20260507053341 | 44 | 350 | 0.0 | 0.0 | 0.00 | 0.00 | 0.00 | 99 | 1034.5 |
| 20260507052840 | 44 | 344 | 0.0 | 0.0 | 0.00 | 0.00 | 0.00 | 99 | 1034.5 |
| 20260507052336 | 44 | 345 | 0.0 | 0.0 | 0.00 | 0.00 | 0.00 | 99 | 1034.5 |
| 20260507051834 | 44 | 354 | 0.0 | 0.9 | 0.00 | 0.00 | 0.00 | 99 | 1034.1 |
| 20260507051331 | 44 | 350 | 0.0 | 0.0 | 0.00 | 0.00 | 0.00 | 99 | 1034.2 |
| 20260507050828 | 44 | 353 | 0.0 | 0.0 | 0.00 | 0.00 | 0.00 | 99 | 1034.2 |
| 20260507050324 | 44 | 342 | 0.0 | 0.0 | 0.00 | 0.00 | 0.00 | 99 | 1034.5 |
| 20260507045821 | 44 | 342 | 0.0 | 0.0 | 0.00 | 0.00 | 0.00 | 99 | 1034.3 |
| 20260507045318 | 44 | 341 | 0.0 | 0.0 | 0.00 | 0.00 | 0.00 | 99 | 1034.3 |
| 20260507044815 | 44 | 346 | 0.0 | 0.0 | 0.00 | 0.00 | 0.00 | 99 | 1033.9 |
| 20260507044312 | 44 | 351 | 0.0 | 0.0 | 0.00 | 0.00 | 0.00 | 99 | 1033.9 |
| 20260507043808 | 45 | 344 | 0.0 | 0.0 | 0.00 | 0.00 | 0.00 | 99 | 1034.1 |
| 20260507043304 | 45 | 347 | 0.0 | 0.0 | 0.00 | 0.00 | 0.00 | 99 | 1034.3 |
| 20260507042801 | 45 | 334 | 0.0 | 0.0 | 0.00 | 0.00 | 0.00 | 99 | 1034.2 |
| 20260507042256 | 45 | 343 | 0.0 | 0.0 | 0.00 | 0.00 | 0.00 | 99 | 1034.2 |
| 20260507041754 | 45 | 334 | 0.0 | 0.0 | 0.00 | 0.00 | 0.00 | 99 | 1034.2 |
| 20260507041250 | 45 | 334 | 0.0 | 0.0 | 0.00 | 0.00 | 0.00 | 99 | 1034.2 |
| 20260507040747 | 45 | 334 | 0.0 | 0.0 | 0.00 | 0.00 | 0.00 | 99 | 1034.0 |
| 20260507040243 | 45 | 334 | 0.0 | 0.0 | 0.00 | 0.00 | 0.00 | 99 | 1033.9 |
| 20260507035739 | 45 | 330 | 0.0 | 0.0 | 0.00 | 0.52 | 0.52 | 99 | 1034.1 |
| 20260507035234 | 45 | 330 | 0.0 | 0.0 | 0.00 | 0.52 | 0.52 | 99 | 1033.9 |
| 20260507034732 | 46 | 334 | 0.0 | 0.0 | 0.00 | 0.52 | 0.52 | 99 | 1033.8 |
| 20260507034229 | 46 | 348 | 0.0 | 0.0 | 0.00 | 0.52 | 0.52 | 99 | 1034.0 |
| 20260507033728 | 46 | 337 | 0.0 | 0.0 | 0.00 | 0.52 | 0.52 | 99 | 1034.3 |
| 20260507033225 | 46 | 340 | 0.0 | 0.0 | 0.05 | 0.52 | 0.52 | 99 | 1034.2 |
| 20260507032722 | 46 | 336 | 0.0 | 0.0 | 0.05 | 0.52 | 0.52 | 99 | 1034.3 |
| 20260507032218 | 46 | 335 | 0.0 | 0.0 | 0.00 | 0.51 | 0.51 | 99 | 1034.5 |
| 20260507031715 | 46 | 339 | 0.0 | 0.0 | 0.00 | 0.51 | 0.51 | 99 | 1034.2 |
| 20260507031211 | 46 | 347 | 0.0 | 0.0 | 0.00 | 0.51 | 0.51 | 99 | 1034.4 |
| 20260507030708 | 46 | 359 | 0.9 | 0.9 | 0.00 | 0.51 | 0.51 | 99 | 1034.5 |
| 20260507030206 | 46 | 346 | 0.0 | 0.0 | 0.00 | 0.51 | 0.51 | 99 | 1034.5 |
| 20260507025703 | 46 | 343 | 0.0 | 0.0 | 0.00 | 0.51 | 0.51 | 99 | 1034.4 |
| 20260507025200 | 46 | 342 | 0.0 | 0.0 | 0.00 | 0.51 | 0.51 | 99 | 1034.6 |
| 20260507024658 | 46 | 345 | 0.0 | 0.0 | 0.00 | 0.51 | 0.51 | 99 | 1034.6 |
| 20260507024155 | 46 | 343 | 0.0 | 0.0 | 0.00 | 0.51 | 0.51 | 99 | 1034.7 |
| 20260507023650 | 46 | 351 | 0.0 | 0.0 | 0.00 | 0.51 | 0.51 | 99 | 1034.7 |
| 20260507023148 | 46 | 336 | 0.0 | 0.0 | 0.00 | 0.51 | 0.51 | 99 | 1034.7 |
| 20260507022645 | 46 | 332 | 0.0 | 0.0 | 0.07 | 0.51 | 0.51 | 99 | 1034.9 |
| 20260507022140 | 46 | 328 | 0.0 | 0.0 | 0.07 | 0.51 | 0.51 | 99 | 1034.8 |
| 20260507021637 | 46 | 336 | 0.0 | 0.0 | 0.00 | 0.50 | 0.50 | 99 | 1034.8 |
| 20260507021132 | 46 | 326 | 0.0 | 0.0 | 0.00 | 0.50 | 0.50 | 99 | 1034.7 |
| 20260507020631 | 47 | 327 | 0.0 | 0.0 | 0.00 | 0.50 | 0.50 | 99 | 1034.6 |
| 20260507020127 | 47 | 328 | 0.0 | 0.0 | 0.00 | 0.50 | 0.50 | 99 | 1034.7 |
| 20260507015625 | 47 | 327 | 0.0 | 0.0 | 0.00 | 0.50 | 0.50 | 99 | 1034.6 |
| 20260507015122 | 47 | 341 | 0.0 | 0.0 | 0.05 | 0.50 | 0.50 | 99 | 1034.6 |
| 20260507014619 | 47 | 343 | 0.0 | 0.0 | 0.05 | 0.50 | 0.50 | 99 | 1034.6 |
| 20260507014115 | 47 | 330 | 0.0 | 0.0 | 0.00 | 0.49 | 0.49 | 99 | 1034.5 |
| 20260507013612 | 47 | 332 | 0.0 | 0.0 | 0.00 | 0.49 | 0.49 | 99 | 1034.6 |
| 20260507013109 | 47 | 335 | 0.0 | 0.0 | 0.07 | 0.49 | 0.49 | 99 | 1034.7 |
| 20260507012606 | 47 | 328 | 0.0 | 0.0 | 0.12 | 0.49 | 0.49 | 99 | 1034.5 |
| 20260507012101 | 47 | 335 | 0.0 | 0.0 | 0.05 | 0.48 | 0.48 | 99 | 1034.3 |
| 20260507011600 | 47 | 329 | 0.0 | 0.0 | 0.12 | 0.48 | 0.48 | 99 | 1034.4 |
| 20260507011055 | 47 | 331 | 0.0 | 0.0 | 0.07 | 0.47 | 0.47 | 99 | 1034.4 |
| 20260507010550 | 47 | 323 | 0.0 | 0.0 | 0.05 | 0.46 | 0.46 | 99 | 1034.1 |
| 20260507010047 | 48 | 0 | 0.0 | 0.0 | 0.12 | 0.46 | 0.46 | 99 | 1034.1 |
| 20260507005544 | 48 | 328 | 0.0 | 0.0 | 0.19 | 0.45 | 0.45 | 99 | 1034.1 |
| 20260507005040 | 48 | 328 | 0.0 | 0.0 | 0.19 | 0.44 | 0.44 | 99 | 1034.1 |
| 20260507004538 | 48 | 331 | 0.0 | 0.0 | 0.12 | 0.42 | 0.42 | 99 | 1033.9 |
| 20260507004035 | 47 | 327 | 0.0 | 0.0 | 0.12 | 0.41 | 0.41 | 99 | 1033.9 |
| 20260507003531 | 48 | 333 | 0.0 | 0.0 | 0.12 | 0.40 | 0.40 | 99 | 1033.9 |
| 20260507003026 | 48 | 358 | 0.9 | 0.9 | 0.12 | 0.39 | 0.39 | 99 | 1033.7 |
| 20260507002522 | 48 | 8 | 0.9 | 0.9 | 0.07 | 0.38 | 0.38 | 99 | 1033.5 |
| 20260507002019 | 48 | 328 | 0.0 | 0.0 | 0.05 | 0.37 | 0.37 | 99 | 1033.5 |
| 20260507001515 | 48 | 345 | 0.0 | 0.0 | 0.05 | 0.37 | 0.37 | 99 | 1033.5 |
| 20260507001013 | 48 | 336 | 0.0 | 0.0 | 0.00 | 0.36 | 0.36 | 99 | 1033.4 |
| 20260507000509 | 48 | 100 | 0.9 | 1.7 | 0.00 | 0.36 | 0.36 | 99 | 1033.2 |
| 20260507000005 | 48 | 340 | 0.0 | 0.0 | 0.00 | 0.36 | 0.36 | 99 | 1033.1 |
| 20260506235502 | 48 | 329 | 0.0 | 0.0 | 0.00 | 0.36 | 0.36 | 99 | 1033.0 |
| 20260506234957 | 48 | 340 | 0.0 | 0.0 | 0.07 | 0.36 | 0.36 | 99 | 1032.9 |
| 20260506234455 | 49 | 331 | 0.0 | 0.0 | 0.07 | 0.36 | 0.36 | 99 | 1032.7 |
| 20260506233952 | 49 | 16 | 0.0 | 0.9 | 0.00 | 0.35 | 0.35 | 99 | 1032.6 |
| 20260506233449 | 49 | 55 | 1.7 | 1.7 | 0.00 | 0.35 | 0.35 | 99 | 1032.5 |
| 20260506232945 | 50 | 331 | 0.0 | 0.0 | 0.00 | 0.35 | 0.35 | 99 | 1032.6 |
| 20260506232442 | 50 | 330 | 0.0 | 0.0 | 0.00 | 0.35 | 0.35 | 99 | 1032.5 |
| 20260506231937 | 50 | 324 | 0.0 | 0.0 | 0.00 | 0.35 | 0.35 | 99 | 1032.4 |
| 20260506231436 | 50 | 323 | 0.0 | 0.0 | 0.00 | 0.35 | 0.35 | 99 | 1032.3 |
| 20260506230932 | 50 | 326 | 0.0 | 0.0 | 0.00 | 0.35 | 0.35 | 99 | 1032.3 |
| 20260506230428 | 51 | 330 | 0.9 | 0.9 | 0.00 | 0.35 | 0.35 | 99 | 1032.1 |
| 20260506225925 | 51 | 357 | 0.9 | 0.9 | 0.05 | 0.35 | 0.35 | 99 | 1032.0 |
| 20260506225423 | 51 | 344 | 0.9 | 0.9 | 0.07 | 0.34 | 0.34 | 99 | 1032.1 |
| 20260506224920 | 51 | 332 | 0.9 | 1.7 | 0.07 | 0.34 | 0.34 | 99 | 1032.1 |
| 20260506224417 | 52 | 328 | 0.0 | 0.0 | 0.00 | 0.33 | 0.33 | 99 | 1032.0 |
| 20260506223913 | 52 | 328 | 0.0 | 0.0 | 0.00 | 0.33 | 0.33 | 99 | 1032.1 |
| 20260506223408 | 52 | 331 | 0.0 | 0.0 | 0.00 | 0.33 | 0.33 | 99 | 1032.0 |
| 20260506222906 | 53 | 328 | 0.0 | 0.0 | 0.00 | 0.33 | 0.33 | 99 | 1031.9 |
| 20260506222402 | 53 | 329 | 0.0 | 0.0 | 0.00 | 0.33 | 0.33 | 99 | 1031.8 |
| 20260506221900 | 53 | 313 | 0.9 | 0.9 | 0.00 | 0.33 | 0.33 | 99 | 1031.8 |
| 20260506221356 | 54 | 320 | 0.0 | 0.0 | 0.00 | 0.33 | 0.33 | 99 | 1031.6 |
| 20260506220854 | 54 | 319 | 0.0 | 0.0 | 0.00 | 0.33 | 0.33 | 99 | 1031.7 |
| 20260506220349 | 53 | 324 | 0.0 | 0.0 | 0.00 | 0.33 | 0.33 | 99 | 1031.7 |
| 20260506215846 | 54 | 340 | 0.0 | 0.0 | 0.00 | 0.33 | 0.33 | 99 | 1031.4 |
| 20260506215342 | 55 | 325 | 0.0 | 0.0 | 0.00 | 0.33 | 0.33 | 99 | 1031.5 |
| 20260506214838 | 55 | 326 | 0.0 | 0.0 | 0.00 | 0.33 | 0.33 | 99 | 1031.4 |
| 20260506214335 | 56 | 327 | 0.0 | 0.0 | 0.00 | 0.33 | 0.33 | 99 | 1031.5 |
| 20260506213833 | 56 | 311 | 0.0 | 0.0 | 0.00 | 0.33 | 0.33 | 99 | 1031.1 |
| 20260506213330 | 56 | 319 | 0.0 | 0.9 | 0.00 | 0.33 | 0.33 | 99 | 1031.4 |
| 20260506212828 | 57 | 335 | 0.9 | 0.9 | 0.00 | 0.33 | 0.33 | 99 | 1031.0 |
| 20260506212323 | 57 | 318 | 0.0 | 0.9 | 0.05 | 0.33 | 0.33 | 99 | 1031.0 |
| 20260506211818 | 59 | 274 | 0.9 | 0.9 | 0.24 | 0.33 | 0.33 | 99 | 1031.2 |
| 20260506211315 | 60 | 295 | 0.9 | 0.9 | 0.26 | 0.32 | 0.32 | 99 | 1031.1 |
| 20260506210813 | 60 | 305 | 0.0 | 0.9 | 0.12 | 0.29 | 0.29 | 99 | 1031.0 |
| 20260506210309 | 60 | 25 | 0.0 | 0.9 | 0.05 | 0.28 | 0.28 | 99 | 1030.8 |
| 20260506205806 | 60 | 338 | 0.0 | 0.0 | 0.12 | 0.28 | 0.28 | 99 | 1030.9 |
| 20260506205305 | 60 | 0 | 0.9 | 0.9 | 0.07 | 0.27 | 0.27 | 99 | 1031.0 |
| 20260506204759 | 60 | 347 | 0.0 | 0.0 | 0.05 | 0.26 | 0.26 | 99 | 1031.0 |
| 20260506204257 | 60 | 175 | 2.6 | 4.3 | 0.05 | 0.26 | 0.26 | 99 | 1030.8 |
| 20260506203754 | 60 | 322 | 0.0 | 0.0 | 0.07 | 0.25 | 0.25 | 99 | 1030.9 |
| 20260506203251 | 60 | 7 | 0.0 | 0.9 | 0.07 | 0.25 | 0.25 | 98 | 1030.9 |
| 20260506202748 | 60 | 328 | 0.0 | 0.0 | 0.00 | 0.24 | 0.24 | 98 | 1030.8 |
| 20260506202245 | 60 | 335 | 0.0 | 0.0 | 0.05 | 0.24 | 0.24 | 98 | 1030.9 |
| 20260506201741 | 60 | 310 | 1.7 | 1.7 | 0.05 | 0.24 | 0.24 | 98 | 1031.0 |
| 20260506201238 | 60 | 2 | 0.9 | 0.9 | 0.00 | 0.23 | 0.23 | 97 | 1030.9 |
| 20260506200735 | 60 | 340 | 0.0 | 0.0 | 0.07 | 0.23 | 0.23 | 97 | 1031.4 |
| 20260506200232 | 60 | 331 | 0.0 | 0.0 | 0.07 | 0.23 | 0.23 | 97 | 1031.2 |
| 20260506195728 | 60 | 321 | 0.0 | 0.0 | 0.00 | 0.22 | 0.22 | 97 | 1031.2 |
| 20260506195225 | 60 | 1 | 0.9 | 0.9 | 0.00 | 0.22 | 0.22 | 97 | 1031.2 |
| 20260506194722 | 60 | 199 | 1.7 | 1.7 | 0.00 | 0.22 | 0.22 | 97 | 1031.2 |
| 20260506194218 | 60 | 359 | 0.0 | 0.9 | 0.00 | 0.22 | 0.22 | 97 | 1031.2 |
| 20260506193716 | 60 | 340 | 0.0 | 0.0 | 0.00 | 0.22 | 0.22 | 97 | 1031.6 |
| 20260506193213 | 60 | 337 | 0.0 | 0.0 | 0.00 | 0.22 | 0.22 | 98 | 1031.6 |
| 20260506192709 | 60 | 335 | 0.0 | 0.0 | 0.00 | 0.22 | 0.22 | 98 | 1031.4 |
| 20260506192206 | 60 | 21 | 0.0 | 0.9 | 0.00 | 0.22 | 0.22 | 98 | 1031.5 |
| 20260506191657 | 60 | 343 | 0.0 | 0.0 | 0.00 | 0.22 | 0.22 | 98 | 1031.5 |
| 20260506191153 | 60 | 329 | 0.0 | 0.0 | 0.00 | 0.22 | 0.22 | 99 | 1031.7 |
| 20260506190650 | 60 | 324 | 0.0 | 0.0 | 0.00 | 0.22 | 0.22 | 99 | 1031.7 |
| 20260506190147 | 59 | 307 | 0.0 | 0.9 | 0.00 | 0.22 | 0.22 | 99 | 1031.8 |
| 20260506185644 | 59 | 328 | 0.0 | 0.0 | 0.05 | 0.22 | 0.22 | 99 | 1031.7 |
| 20260506185140 | 59 | 327 | 0.0 | 0.0 | 0.05 | 0.22 | 0.22 | 99 | 1031.9 |
| 20260506184638 | 59 | 341 | 0.0 | 0.0 | 0.00 | 0.21 | 0.21 | 99 | 1032.0 |
| 20260506184135 | 59 | 289 | 0.9 | 0.9 | 0.00 | 0.21 | 0.21 | 99 | 1031.9 |
| 20260506183632 | 59 | 325 | 0.0 | 0.9 | 0.00 | 0.21 | 0.21 | 99 | 1031.9 |
| 20260506183127 | 59 | 334 | 0.0 | 0.0 | 0.07 | 0.21 | 0.21 | 99 | 1032.0 |
| 20260506182625 | 59 | 338 | 0.0 | 0.0 | 0.05 | 0.20 | 0.20 | 99 | 1032.0 |
| 20260506182122 | 59 | 335 | 0.0 | 0.0 | 0.12 | 0.20 | 0.20 | 99 | 1032.2 |
| 20260506181620 | 59 | 28 | 0.0 | 0.9 | 0.12 | 0.19 | 0.19 | 99 | 1032.2 |
| 20260506181117 | 59 | 290 | 1.7 | 4.3 | 0.12 | 0.18 | 0.18 | 99 | 1032.7 |
| 20260506180614 | 59 | 131 | 2.6 | 4.3 | 0.14 | 0.17 | 0.17 | 99 | 1032.3 |
| 20260506180110 | 59 | 116 | 0.9 | 1.7 | 0.12 | 0.16 | 0.16 | 99 | 1032.2 |
| 20260506175606 | 59 | 324 | 0.0 | 0.0 | 0.12 | 0.15 | 0.15 | 99 | 1032.3 |
| 20260506175102 | 59 | 324 | 0.0 | 0.9 | 0.12 | 0.14 | 0.14 | 99 | 1032.2 |
| 20260506174602 | 60 | 325 | 0.0 | 0.0 | 0.12 | 0.13 | 0.13 | 99 | 1032.5 |
| 20260506174057 | 60 | 11 | 0.0 | 0.9 | 0.12 | 0.12 | 0.12 | 99 | 1032.3 |
| 20260506173555 | 60 | 334 | 0.0 | 0.0 | 0.12 | 0.11 | 0.11 | 98 | 1032.6 |
| 20260506173052 | 60 | 330 | 0.0 | 0.0 | 0.12 | 0.10 | 0.10 | 98 | 1032.7 |
| 20260506172549 | 60 | 331 | 0.0 | 0.0 | 0.12 | 0.09 | 0.09 | 98 | 1032.7 |
| 20260506172045 | 60 | 327 | 0.0 | 0.0 | 0.07 | 0.08 | 0.08 | 98 | 1032.7 |
| 20260506171543 | 60 | 335 | 0.0 | 0.0 | 0.05 | 0.07 | 0.07 | 98 | 1032.9 |
| 20260506171041 | 60 | 334 | 0.0 | 0.0 | 0.05 | 0.07 | 0.07 | 98 | 1032.8 |
| 20260506170538 | 60 | 338 | 0.0 | 0.0 | 0.07 | 0.06 | 0.06 | 98 | 1032.6 |
| 20260506170036 | 59 | 330 | 0.0 | 0.0 | 0.07 | 0.06 | 0.06 | 98 | 1032.8 |
| 20260506165534 | 59 | 332 | 0.0 | 0.0 | 0.05 | 0.05 | 0.05 | 98 | 1032.8 |
| 20260506165030 | 59 | 330 | 0.0 | 0.0 | 0.05 | 0.05 | 0.05 | 98 | 1032.8 |
| 20260506164527 | 60 | 346 | 0.0 | 0.0 | 0.00 | 0.04 | 0.04 | 98 | 1032.8 |
| 20260506164024 | 60 | 340 | 0.0 | 0.0 | 0.00 | 0.04 | 0.04 | 98 | 1033.1 |
| 20260506163520 | 59 | 344 | 0.0 | 0.0 | 0.07 | 0.04 | 0.04 | 97 | 1033.1 |
| 20260506163016 | 59 | 319 | 0.0 | 0.0 | 0.07 | 0.04 | 0.04 | 97 | 1033.4 |
| 20260506162512 | 59 | 319 | 0.0 | 0.0 | 0.00 | 0.03 | 0.03 | 97 | 1033.3 |
| 20260506162009 | 60 | 330 | 0.0 | 0.0 | 0.07 | 0.03 | 0.03 | 97 | 1033.3 |
| 20260506161507 | 59 | 352 | 0.0 | 0.0 | 0.07 | 0.03 | 0.03 | 96 | 1033.1 |
| 20260506161004 | 60 | 319 | 0.0 | 0.0 | 0.00 | 0.02 | 0.02 | 96 | 1033.3 |
| 20260506160502 | 59 | 337 | 0.0 | 0.0 | 0.00 | 0.02 | 0.02 | 96 | 1033.2 |
| 20260506155958 | 59 | 347 | 0.0 | 0.0 | 0.00 | 0.02 | 0.02 | 95 | 1033.2 |
| 20260506155456 | 59 | 353 | 0.0 | 0.0 | 0.00 | 0.02 | 0.02 | 96 | 1033.6 |
| 20260506153628 | 59 | 342 | 0.0 | 0.0 | 0.05 | 0.02 | 0.02 | 93 | 1034.2 |
| 20260506153125 | 59 | 328 | 0.0 | 0.0 | 0.00 | 0.01 | 0.01 | 93 | 1034.2 |
| 20260506152622 | 59 | 325 | 0.0 | 0.0 | 0.00 | 0.01 | 0.01 | 92 | 1034.4 |
| 20260506152120 | 59 | 340 | 0.0 | 0.0 | 0.00 | 0.01 | 0.01 | 92 | 1034.4 |
| 20260506151619 | 59 | 347 | 0.0 | 0.0 | 0.00 | 0.01 | 0.01 | 91 | 1034.3 |
| 20260506151115 | 59 | 333 | 0.0 | 0.0 | 0.00 | 0.01 | 0.01 | 90 | 1034.5 |
| 20260506150612 | 60 | 297 | 0.0 | 0.0 | 0.07 | 0.01 | 0.01 | 90 | 1034.6 |
| 20260506150109 | 60 | 333 | 0.0 | 0.0 | 0.07 | 0.01 | 0.01 | 90 | 1034.5 |
| 20260506145606 | 60 | 334 | 0.0 | 0.0 | 0.07 | 0.01 | 0.01 | 90 | 1034.5 |
| 20260506145103 | 60 | 329 | 0.0 | 0.0 | 0.00 | 0.00 | 0.00 | 90 | 1034.5 |
| 20260506144559 | 60 | 325 | 0.0 | 0.0 | 0.00 | 0.00 | 0.00 | 90 | 1034.5 |
| 20260506144056 | 60 | 327 | 0.0 | 0.0 | 0.00 | 0.00 | 0.00 | 88 | 1034.5 |
| 20260506143554 | 60 | 333 | 0.0 | 0.0 | 0.00 | 0.00 | 0.00 | 87 | 1034.4 |
| 20260506143052 | 60 | 322 | 0.0 | 0.0 | 0.00 | 0.00 | 0.00 | 86 | 1034.5 |
| 20260506142550 | 60 | 325 | 0.0 | 0.9 | 0.00 | 0.00 | 0.00 | 85 | 1034.7 |
| 20260506142048 | 60 | 338 | 0.0 | 0.0 | 0.00 | 0.00 | 0.00 | 85 | 1034.3 |
| 20260506141545 | 60 | 332 | 0.0 | 0.0 | 0.00 | 0.00 | 0.00 | 85 | 1034.5 |
| 20260506141044 | 60 | 325 | 0.0 | 0.0 | 0.00 | 0.00 | 0.00 | 86 | 1034.6 |
| 20260506140541 | 59 | 249 | 1.7 | 1.7 | 0.00 | 0.00 | 0.00 | 85 | 1034.6 |
| 20260506140038 | 59 | 143 | 0.9 | 1.7 | 0.00 | 0.00 | 0.00 | 86 | 1034.6 |
| 20260506135535 | 59 | 315 | 0.0 | 0.9 | 0.00 | 0.00 | 0.00 | 86 | 1034.3 |
| 20260506135031 | 59 | 141 | 1.7 | 1.7 | 0.00 | 0.00 | 0.00 | 86 | 1034.3 |
| 20260506134527 | 59 | 141 | 2.6 | 2.6 | 0.00 | 0.00 | 0.00 | 85 | 1034.5 |
| 20260506134024 | 59 | 305 | 0.0 | 0.9 | 0.00 | 0.00 | 0.00 | 86 | 1034.5 |
| 20260506133521 | 59 | 336 | 1.7 | 1.7 | 0.00 | 0.00 | 0.00 | 86 | 1034.5 |
| 20260506133018 | 59 | 323 | 0.0 | 0.0 | 0.00 | 0.00 | 0.00 | 87 | 1034.4 |
| 20260506132515 | 59 | 357 | 0.9 | 0.9 | 0.00 | 0.00 | 0.00 | 86 | 1034.7 |
| 20260506132012 | 59 | 356 | 0.9 | 0.9 | 0.00 | 0.00 | 0.00 | 86 | 1034.7 |
| 20260506131509 | 59 | 339 | 0.0 | 0.0 | 0.00 | 0.00 | 0.00 | 87 | 1035.0 |
| 20260506131006 | 59 | 174 | 0.9 | 1.7 | 0.00 | 0.00 | 0.00 | 87 | 1035.3 |
| 20260506130502 | 59 | 7 | 0.9 | 0.9 | 0.00 | 0.00 | 0.00 | 87 | 1035.3 |
| 20260506130000 | 59 | 154 | 1.7 | 1.7 | 0.00 | 0.00 | 0.00 | 87 | 1035.5 |
| 20260506125458 | 58 | 325 | 0.0 | 0.0 | 0.00 | 0.00 | 0.00 | 88 | 1035.2 |
| 20260506124955 | 58 | 329 | 0.0 | 0.0 | 0.00 | 0.00 | 0.00 | 88 | 1035.2 |
| 20260506124453 | 58 | 313 | 0.9 | 0.9 | 0.00 | 0.00 | 0.00 | 87 | 1034.7 |
| 20260506123951 | 58 | 1 | 0.0 | 0.9 | 0.00 | 0.00 | 0.00 | 87 | 1034.5 |
| 20260506123449 | 58 | 328 | 0.0 | 0.0 | 0.00 | 0.00 | 0.00 | 88 | 1035.1 |
| 20260506122946 | 58 | 322 | 0.0 | 0.0 | 0.00 | 0.00 | 0.00 | 88 | 1035.2 |
| 20260506122443 | 58 | 328 | 0.0 | 0.0 | 0.00 | 0.00 | 0.00 | 88 | 1035.0 |
| 20260506121941 | 58 | 335 | 0.0 | 0.0 | 0.00 | 0.00 | 0.00 | 89 | 1034.8 |
| 20260506121438 | 58 | 348 | 0.0 | 0.0 | 0.00 | 0.00 | 0.00 | 90 | 1034.9 |
| 20260506120934 | 57 | 331 | 0.0 | 0.0 | 0.00 | 0.00 | 0.00 | 89 | 1035.1 |
| 20260506120432 | 57 | 328 | 0.0 | 0.0 | 0.00 | 0.00 | 0.00 | 90 | 1035.2 |
| 20260506115929 | 57 | 296 | 0.0 | 0.0 | 0.00 | 0.00 | 0.00 | 91 | 1035.1 |
| 20260506115427 | 57 | 323 | 0.0 | 0.0 | 0.00 | 0.00 | 0.00 | 93 | 1035.1 |
| 20260506114925 | 57 | 331 | 0.0 | 0.0 | 0.00 | 0.00 | 0.00 | 93 | 1035.0 |
| 20260506114423 | 57 | 334 | 0.0 | 0.0 | 0.00 | 0.00 | 0.00 | 93 | 1035.0 |
| 20260506113921 | 57 | 340 | 0.0 | 0.0 | 0.00 | 0.00 | 0.00 | 93 | 1035.0 |
| 20260506113419 | 57 | 343 | 0.0 | 0.0 | 0.00 | 0.00 | 0.00 | 94 | 1035.1 |
| 20260506112915 | 56 | 343 | 0.0 | 0.0 | 0.00 | 0.00 | 0.00 | 94 | 1035.1 |
| 20260506112413 | 56 | 337 | 0.0 | 0.0 | 0.00 | 0.00 | 0.00 | 94 | 1035.2 |
| 20260506111910 | 56 | 329 | 0.0 | 0.0 | 0.00 | 0.00 | 0.00 | 94 | 1035.2 |
| 20260506111408 | 56 | 325 | 0.0 | 0.0 | 0.00 | 0.00 | 0.00 | 94 | 1035.3 |
| 20260506110905 | 56 | 2 | 0.0 | 0.0 | 0.00 | 0.00 | 0.00 | 94 | 1035.2 |
| 20260506110402 | 55 | 326 | 0.0 | 0.0 | 0.00 | 0.00 | 0.00 | 95 | 1035.2 |